Погода в Витязево

Россия / Краснодарский край     45°00′08″N   37°17′01″E
темп.,
°C
ветер,
м/с
пор.,
м/с
влажн.,
%
обл.,
%
осадки,
мм/ч
давл.,
гПа
погр.,
м
11 мая, вт
вт1100:00+13зюз111262100 0.2 1018894
03:00+13зюз121367100 0.4 10161091
06:00+12з101370100 0.4 10151562
09:00+11зюз111381100 2.3 10141092
12:00+11зюз111291100 2.8 1013841
15:00+11з6892100 8.1 1014676
18:00+10св4491100 5.8 1014305
21:00+10св33849 5.9 1015187
12 мая, ср
ср1200:00+9всв2279100 0.0 1015110
03:00+10в227899 0.0 1014141
06:00+11вюв338893 0.2 1014191
09:00+12ююв81190100 1.7 1014720
12:00+13ю797397 0.8 1015911
15:00+14ю66658 0.8 1015713
18:00+14ю236519 0.0 1014262
21:00+13ссв22685 0.0 101454
13 мая, чт
чт1300:00+11ссв46790 0.0 1013121
03:00+12св56880 0.0 1012125
06:00+12св578974 0.0 1012141
09:00+17всв677221 0.0 1011208
12:00+21в235776 0.0 1011356
15:00+21в3360100 0.0 1010379
18:00+21в57736 0.0 1010193
21:00+18в468589 0.0 101065
14 мая, пт
пт1400:00+17ю33865 0.0 100915
03:00+15юз22810 0.0 101019
06:00+16всв11715 0.0 101011
09:00+20ссв225850 0.0 1011134
12:00+23юз2355100 0.0 1010384
15:00+22юз2257100 0.0 1010161
18:00+21ссз33662 0.0 101098
21:00+18сз3375100 0.9 101126
15 мая, сб
сб1500:00+16зюз5790100 0.2 1012115
03:00+15ююз45835 0.2 101389
06:00+16сз2280100 0.0 101428
09:00+17зюз2371100 0.0 1016191
12:00+18ююз337054 0.0 1017354
15:00+19ююз5472100 0.0 1015295
18:00
21:00+15ю338584 0.0 101626